QPF
0.03 0.02 0.02 0.01 0.02 0.04 0.05 0.06 0.07 0.08 0.09 0.10 0.10 0.08 0.09 0.09 0.09 0.07 0.06 0.07 0.06 0.05 0.05 0.07 0.09 0.08 0.09 0.10 0.10 0.08 0.08 0.08 0.08 0.08 0.07 0.06 0.07 0.08 0.07 0.06 0.06 0.05 0.05
0.04 0.03 0.02 0.02 0.02 0.04 0.04 0.05 0.07 0.07 0.09 0.10 0.09 0.08 0.09 0.07 0.07 0.08 0.09 0.08 0.08 0.08 0.07 0.09 0.09 0.08 0.09 0.08 0.08 0.10 0.11 0.10 0.10 0.10 0.10 0.08 0.07 0.06 0.05 0.06 0.04 0.04 0.04
0.04 0.03 0.03 0.03 0.03 0.04 0.04 0.05 0.05 0.05 0.07 0.10 0.09 0.09 0.08 0.06 0.07 0.08 0.10 0.09 0.09 0.11 0.12 0.12 0.10 0.09 0.07 0.08 0.08 0.08 0.08 0.08 0.08 0.08 0.10 0.11 0.08 0.06 0.05 0.04 0.04 0.04 0.05
0.03 0.02 0.03 0.04 0.04 0.04 0.05 0.07 0.07 0.07 0.08 0.09 0.10 0.09 0.08 0.08 0.09 0.09 0.09 0.10 0.10 0.11 0.12 0.12 0.12 0.12 0.09 0.09 0.07 0.07 0.07 0.07 0.07 0.08 0.08 0.09 0.12 0.11 0.08 0.06 0.05 0.05 0.04
0.02 0.02 0.02 0.03 0.03 0.05 0.06 0.06 0.07 0.08 0.09 0.09 0.09 0.09 0.10 0.10 0.10 0.10 0.10 0.09 0.09 0.10 0.09 0.09 0.09 0.11 0.10 0.08 0.06 0.06 0.06 0.06 0.05 0.06 0.07 0.08 0.11 0.11 0.10 0.08 0.08 0.07 0.04
0.04 0.05 0.03 0.03 0.03 0.06 0.07 0.07 0.07 0.10 0.12 0.12 0.12 0.12 0.11 0.11 0.11 0.10 0.10 0.09 0.07 0.08 0.07 0.07 0.07 0.06 0.07 0.06 0.05 0.05 0.05 0.06 0.05 0.06 0.06 0.07 0.09 0.09 0.10 0.09 0.08 0.06 0.04
0.06 0.07 0.06 0.05 0.06 0.09 0.08 0.08 0.09 0.11 0.13 0.14 0.13 0.12 0.10 0.08 0.08 0.07 0.06 0.08 0.07 0.07 0.07 0.06 0.05 0.05 0.05 0.05 0.05 0.06 0.06 0.06 0.06 0.05 0.06 0.07 0.08 0.09 0.11 0.11 0.10 0.08 0.06
0.07 0.06 0.07 0.06 0.06 0.08 0.10 0.09 0.10 0.12 0.13 0.14 0.13 0.10 0.08 0.08 0.09 0.09 0.08 0.07 0.06 0.05 0.05 0.05 0.03 0.03 0.03 0.04 0.06 0.07 0.06 0.06 0.07 0.05 0.07 0.07 0.07 0.07 0.07 0.09 0.11 0.11 0.09
0.06 0.06 0.06 0.05 0.05 0.06 0.08 0.10 0.10 0.11 0.10 0.11 0.13 0.11 0.09 0.11 0.11 0.11 0.10 0.08 0.08 0.06 0.05 0.04 0.04 0.04 0.05 0.06 0.07 0.07 0.07 0.08 0.09 0.08 0.07 0.06 0.06 0.05 0.06 0.08 0.10 0.11 0.10
0.06 0.08 0.08 0.06 0.05 0.05 0.06 0.06 0.07 0.08 0.07 0.06 0.06 0.06 0.08 0.11 0.12 0.12 0.10 0.08 0.07 0.06 0.04 0.04 0.04 0.04 0.04 0.06 0.07 0.07 0.07 0.08 0.08 0.07 0.06 0.05 0.05 0.05 0.05 0.06 0.07 0.08 0.08
0.06 0.09 0.07 0.06 0.06 0.04 0.03 0.03 0.03 0.04 0.05 0.04 0.05 0.05 0.07 0.08 0.08 0.07 0.06 0.06 0.07 0.07 0.06 0.05 0.04 0.04 0.05 0.06 0.07 0.07 0.06 0.07 0.06 0.05 0.05 0.04 0.04 0.04 0.03 0.04 0.05 0.06 0.06
0.04 0.04 0.04 0.04 0.04 0.03 0.04 0.03 0.02 0.03 0.04 0.05 0.06 0.06 0.06 0.06 0.06 0.06 0.07 0.07 0.07 0.05 0.04 0.05 0.06 0.06 0.07 0.08 0.08 0.08 0.07 0.06 0.04 0.04 0.04 0.03 0.03 0.03 0.03 0.03 0.04 0.06 0.06
0.03 0.03 0.02 0.03 0.03 0.03 0.04 0.04 0.02 0.03 0.04 0.05 0.06 0.07 0.07 0.08 0.07 0.06 0.05 0.05 0.05 0.05 0.05 0.06 0.08 0.09 0.09 0.09 0.09 0.06 0.05 0.05 0.04 0.03 0.03 0.03 0.04 0.03 0.02 0.03 0.03 0.04 0.05
0.04 0.04 0.02 0.02 0.03 0.03 0.03 0.03 0.02 0.02 0.02 0.03 0.05 0.06 0.07 0.06 0.05 0.05 0.05 0.04 0.04 0.04 0.05 0.06 0.07 0.08 0.08 0.07 0.06 0.05 0.05 0.05 0.05 0.04 0.04 0.03 0.03 0.02 0.02 0.02 0.04 0.04 0.04
0.03 0.04 0.03 0.04 0.03 0.04 0.04 0.03 0.02 0.03 0.03 0.03 0.05 0.06 0.05 0.05 0.05 0.04 0.06 0.05 0.05 0.05 0.06 0.06 0.06 0.06 0.06 0.06 0.05 0.04 0.03 0.03 0.04 0.04 0.04 0.04 0.03 0.02 0.02 0.02 0.03 0.04 0.05
0.01 0.02 0.03 0.05 0.06 0.04 0.04 0.03 0.02 0.03 0.04 0.04 0.05 0.05 0.04 0.04 0.03 0.03 0.05 0.05 0.05 0.06 0.05 0.05 0.04 0.04 0.04 0.03 0.02 0.02 0.02 0.03 0.04 0.03 0.03 0.03 0.03 0.03 0.04 0.03 0.03 0.04 0.05
0.02 0.03 0.04 0.06 0.06 0.04 0.03 0.03 0.04 0.03 0.03 0.03 0.04 0.03 0.03 0.02 0.02 0.02 0.04 0.04 0.04 0.05 0.04 0.03 0.03 0.03 0.03 0.03 0.02 0.02 0.03 0.04 0.05 0.03 0.04 0.04 0.02 0.03 0.04 0.06 0.06 0.05 0.05
0.02 0.04 0.04 0.05 0.05 0.05 0.04 0.05 0.05 0.05 0.03 0.03 0.04 0.02 0.02 0.02 0.02 0.02 0.03 0.05 0.05 0.05 0.07 0.07 0.06 0.04 0.03 0.02 0.03 0.03 0.03 0.04 0.05 0.04 0.05 0.05 0.05 0.04 0.05 0.06 0.08 0.09 0.07
0.04 0.04 0.05 0.04 0.04 0.04 0.04 0.05 0.06 0.05 0.04 0.03 0.03 0.01 0.01 0.01 0.01 0.01 0.03 0.06 0.06 0.07 0.07 0.06 0.05 0.04 0.02 0.01 0.02 0.03 0.03 0.03 0.04 0.04 0.05 0.06 0.06 0.06 0.05 0.05 0.06 0.06 0.06
0.04 0.05 0.04 0.02 0.02 0.03 0.03 0.05 0.05 0.04 0.04 0.03 0.02 0.01 0.01 0.01 0.01 0.01 0.03 0.05 0.05 0.04 0.03 0.03 0.03 0.03 0.02 0.02 0.01 0.02 0.03 0.03 0.04 0.04 0.05 0.06 0.06 0.04 0.03 0.05 0.06 0.06 0.05
0.03 0.02 0.02 0.02 0.02 0.03 0.04 0.07 0.05 0.03 0.02 0.02 0.01 0.01 0.02 0.02 0.01 0.01 0.02 0.03 0.03 0.04 0.02 0.03 0.05 0.04 0.02 0.02 0.01 0.01 0.03 0.03 0.04 0.04 0.04 0.04 0.03 0.03 0.02 0.03 0.04 0.05 0.06
0.02 0.02 0.03 0.03 0.03 0.04 0.05 0.07 0.06 0.03 0.02 0.02 0.02 0.01 0.01 0.01 0.01 0.01 0.01 0.02 0.04 0.04 0.03 0.03 0.03 0.03 0.02 0.01 0.01 0.01 0.02 0.03 0.03 0.04 0.03 0.02 0.01 0.02 0.02 0.02 0.02 0.01 0.02
0.01 0.02 0.02 0.03 0.04 0.05 0.05 0.06 0.06 0.04 0.02 0.02 0.01 0.01 0.01 0.00 0.01 0.01 0.01 0.02 0.03 0.02 0.01 0.01 0.01 0.01 0.01 0.01 0.01 0.01 0.01 0.02 0.02 0.04 0.04 0.02 0.02 0.02 0.02 0.02 0.01 0.01 0.01
0.01 0.02 0.02 0.03 0.03 0.03 0.04 0.05 0.04 0.03 0.02 0.02 0.01 0.01 0.01 0.00 0.01 0.01 0.01 0.01 0.01 0.02 0.02 0.01 0.01 0.01 0.01 0.01 0.01 0.01 0.01 0.01 0.02 0.03 0.04 0.04 0.04 0.04 0.04 0.03 0.02 0.01 0.01
0.01 0.02 0.04 0.04 0.02 0.03 0.03 0.04 0.04 0.04 0.04 0.03 0.02 0.01 0.01 0.01 0.01 0.01 0.00 0.01 0.02 0.02 0.02 0.02 0.02 0.02 0.02 0.01 0.01 0.01 0.00 0.01 0.02 0.03 0.03 0.03 0.03 0.03 0.03 0.02 0.01 0.01 0.01
0.02 0.03 0.04 0.03 0.02 0.03 0.03 0.03 0.04 0.04 0.05 0.04 0.02 0.01 0.01 0.02 0.01 0.01 0.01 0.01 0.02 0.02 0.03 0.03 0.02 0.02 0.01 0.01 0.00 0.01 0.00 0.00 0.01 0.02 0.02 0.02 0.02 0.02 0.01 0.01 0.01 0.01 0.01
MSLP
1006.64 1006.71 1006.75 1006.75 1006.70 1006.59 1006.45 1006.32 1006.22 1006.21 1006.31 1006.53 1006.86 1007.27 1007.73 1008.20 1008.64 1009.01 1009.30 1009.53 1009.71 1009.87 1010.04 1010.25 1010.51 1010.82 1011.19 1011.59 1012.00 1012.38 1012.72 1013.00 1013.19 1013.30 1013.34 1013.31 1013.24 1013.14 1013.05 1012.98 1012.96 1012.98 1013.04
1006.48 1006.48 1006.50 1006.51 1006.50 1006.47 1006.42 1006.37 1006.36 1006.42 1006.57 1006.83 1007.19 1007.62 1008.09 1008.56 1008.98 1009.35 1009.63 1009.85 1010.00 1010.14 1010.27 1010.43 1010.65 1010.91 1011.23 1011.57 1011.92 1012.26 1012.55 1012.78 1012.94 1013.02 1013.04 1013.00 1012.92 1012.83 1012.74 1012.68 1012.65 1012.65 1012.70
1006.27 1006.19 1006.16 1006.17 1006.20 1006.22 1006.25 1006.30 1006.38 1006.52 1006.74 1007.06 1007.46 1007.93 1008.42 1008.91 1009.36 1009.74 1010.03 1010.24 1010.39 1010.49 1010.59 1010.70 1010.86 1011.06 1011.31 1011.58 1011.87 1012.15 1012.39 1012.58 1012.70 1012.76 1012.76 1012.72 1012.64 1012.55 1012.46 1012.39 1012.35 1012.34 1012.36
1006.15 1005.97 1005.89 1005.88 1005.93 1006.00 1006.10 1006.22 1006.38 1006.60 1006.89 1007.27 1007.72 1008.23 1008.77 1009.30 1009.79 1010.20 1010.51 1010.74 1010.88 1010.97 1011.03 1011.09 1011.18 1011.31 1011.48 1011.69 1011.91 1012.12 1012.32 1012.47 1012.57 1012.62 1012.61 1012.56 1012.48 1012.39 1012.29 1012.21 1012.15 1012.11 1012.10
1006.24 1005.98 1005.84 1005.81 1005.85 1005.96 1006.10 1006.27 1006.49 1006.77 1007.11 1007.54 1008.04 1008.59 1009.18 1009.76 1010.28 1010.74 1011.09 1011.34 1011.49 1011.56 1011.59 1011.61 1011.63 1011.69 1011.78 1011.91 1012.07 1012.23 1012.39 1012.52 1012.60 1012.64 1012.64 1012.59 1012.51 1012.42 1012.31 1012.21 1012.11 1012.03 1011.97
1006.65 1006.31 1006.12 1006.06 1006.10 1006.21 1006.37 1006.58 1006.83 1007.13 1007.50 1007.95 1008.47 1009.05 1009.67 1010.28 1010.85 1011.34 1011.73 1012.01 1012.18 1012.25 1012.25 1012.22 1012.19 1012.18 1012.20 1012.27 1012.37 1012.49 1012.61 1012.73 1012.81 1012.86 1012.86 1012.83 1012.75 1012.65 1012.53 1012.40 1012.27 1012.13 1012.01
1007.41 1007.01 1006.78 1006.68 1006.70 1006.81 1006.98 1007.19 1007.45 1007.75 1008.11 1008.55 1009.06 1009.63 1010.25 1010.87 1011.47 1011.99 1012.41 1012.71 1012.90 1012.97 1012.96 1012.90 1012.82 1012.75 1012.72 1012.73 1012.78 1012.86 1012.97 1013.08 1013.17 1013.23 1013.25 1013.23 1013.17 1013.07 1012.94 1012.77 1012.60 1012.41 1012.21
1008.45 1008.02 1007.75 1007.63 1007.64 1007.74 1007.90 1008.10 1008.34 1008.62 1008.95 1009.34 1009.81 1010.34 1010.92 1011.53 1012.11 1012.64 1013.08 1013.41 1013.61 1013.69 1013.68 1013.60 1013.49 1013.38 1013.29 1013.26 1013.27 1013.32 1013.41 1013.52 1013.62 1013.69 1013.74 1013.74 1013.69 1013.60 1013.46 1013.27 1013.05 1012.81 1012.55
1009.66 1009.21 1008.93 1008.80 1008.80 1008.89 1009.04 1009.23 1009.45 1009.69 1009.96 1010.29 1010.68 1011.14 1011.66 1012.21 1012.76 1013.28 1013.72 1014.05 1014.27 1014.38 1014.37 1014.29 1014.16 1014.03 1013.91 1013.83 1013.81 1013.83 1013.90 1013.99 1014.09 1014.18 1014.25 1014.27 1014.24 1014.16 1014.02 1013.82 1013.57 1013.27 1012.95
1010.87 1010.42 1010.13 1010.00 1010.00 1010.10 1010.26 1010.45 1010.64 1010.85 1011.08 1011.33 1011.64 1012.01 1012.44 1012.92 1013.41 1013.89 1014.32 1014.66 1014.90 1015.02 1015.04 1014.98 1014.85 1014.71 1014.56 1014.45 1014.38 1014.37 1014.40 1014.47 1014.56 1014.65 1014.72 1014.76 1014.75 1014.68 1014.54 1014.33 1014.06 1013.73 1013.36
1011.91 1011.48 1011.20 1011.08 1011.10 1011.22 1011.40 1011.60 1011.80 1012.00 1012.19 1012.39 1012.62 1012.90 1013.24 1013.63 1014.05 1014.48 1014.89 1015.24 1015.50 1015.65 1015.71 1015.68 1015.57 1015.42 1015.26 1015.12 1015.00 1014.93 1014.92 1014.94 1014.99 1015.06 1015.12 1015.16 1015.16 1015.10 1014.97 1014.76 1014.48 1014.14 1013.73
1012.67 1012.26 1012.00 1011.91 1011.95 1012.11 1012.33 1012.57 1012.81 1013.02 1013.20 1013.37 1013.55 1013.76 1014.02 1014.33 1014.69 1015.07 1015.46 1015.81 1016.09 1016.29 1016.40 1016.40 1016.32 1016.19 1016.01 1015.83 1015.67 1015.54 1015.45 1015.40 1015.40 1015.42 1015.45 1015.48 1015.47 1015.41 1015.29 1015.09 1014.81 1014.46 1014.04
1013.11 1012.74 1012.50 1012.43 1012.51 1012.71 1012.99 1013.30 1013.59 1013.84 1014.05 1014.22 1014.38 1014.55 1014.75 1015.00 1015.31 1015.66 1016.02 1016.38 1016.69 1016.93 1017.09 1017.14 1017.10 1016.98 1016.80 1016.59 1016.37 1016.16 1016.00 1015.87 1015.79 1015.75 1015.74 1015.73 1015.70 1015.64 1015.52 1015.32 1015.05 1014.69 1014.27
1013.25 1012.92 1012.72 1012.68 1012.80 1013.05 1013.39 1013.76 1014.12 1014.45 1014.71 1014.92 1015.09 1015.25 1015.42 1015.64 1015.91 1016.22 1016.58 1016.94 1017.28 1017.56 1017.76 1017.86 1017.86 1017.76 1017.57 1017.33 1017.06 1016.79 1016.54 1016.33 1016.17 1016.06 1015.99 1015.94 1015.89 1015.81 1015.68 1015.49 1015.21 1014.86 1014.44
1013.18 1012.90 1012.74 1012.73 1012.88 1013.17 1013.57 1014.01 1014.45 1014.85 1015.18 1015.44 1015.65 1015.83 1016.00 1016.20 1016.45 1016.75 1017.08 1017.44 1017.80 1018.11 1018.35 1018.49 1018.52 1018.44 1018.26 1018.00 1017.69 1017.36 1017.05 1016.76 1016.53 1016.35 1016.22 1016.13 1016.04 1015.94 1015.80 1015.60 1015.33 1014.97 1014.56
1013.01 1012.79 1012.67 1012.69 1012.87 1013.19 1013.62 1014.11 1014.62 1015.09 1015.49 1015.82 1016.08 1016.29 1016.48 1016.67 1016.90 1017.18 1017.50 1017.85 1018.20 1018.52 1018.77 1018.94 1019.00 1018.94 1018.77 1018.51 1018.18 1017.82 1017.46 1017.13 1016.84 1016.61 1016.43 1016.29 1016.17 1016.05 1015.89 1015.68 1015.40 1015.05 1014.63
1012.84 1012.70 1012.62 1012.67 1012.86 1013.19 1013.64 1014.17 1014.71 1015.23 1015.69 1016.08 1016.39 1016.63 1016.84 1017.03 1017.25 1017.50 1017.79 1018.10 1018.43 1018.74 1018.99 1019.17 1019.24 1019.20 1019.05 1018.81 1018.49 1018.12 1017.75 1017.39 1017.07 1016.81 1016.60 1016.43 1016.28 1016.13 1015.96 1015.73 1015.44 1015.08 1014.67
1012.75 1012.68 1012.66 1012.74 1012.94 1013.27 1013.72 1014.24 1014.80 1015.34 1015.84 1016.26 1016.60 1016.88 1017.10 1017.29 1017.48 1017.69 1017.94 1018.21 1018.49 1018.76 1019.00 1019.17 1019.25 1019.23 1019.10 1018.89 1018.60 1018.25 1017.89 1017.54 1017.22 1016.94 1016.70 1016.51 1016.34 1016.16 1015.96 1015.72 1015.42 1015.05 1014.64
1012.75 1012.78 1012.82 1012.93 1013.14 1013.45 1013.88 1014.38 1014.92 1015.46 1015.97 1016.41 1016.77 1017.06 1017.28 1017.46 1017.63 1017.80 1017.98 1018.19 1018.42 1018.64 1018.84 1018.99 1019.07 1019.07 1018.98 1018.81 1018.56 1018.26 1017.93 1017.60 1017.28 1017.00 1016.75 1016.53 1016.33 1016.12 1015.90 1015.63 1015.32 1014.95 1014.53
1012.83 1012.96 1013.08 1013.22 1013.44 1013.74 1014.13 1014.60 1015.11 1015.63 1016.12 1016.55 1016.92 1017.21 1017.43 1017.59 1017.73 1017.85 1017.98 1018.13 1018.29 1018.46 1018.62 1018.75 1018.84 1018.85 1018.80 1018.67 1018.47 1018.21 1017.92 1017.61 1017.30 1017.01 1016.74 1016.49 1016.24 1016.00 1015.74 1015.45 1015.12 1014.75 1014.34
1012.95 1013.19 1013.38 1013.57 1013.80 1014.09 1014.45 1014.88 1015.34 1015.83 1016.29 1016.71 1017.07 1017.35 1017.57 1017.72 1017.83 1017.91 1018.00 1018.09 1018.20 1018.33 1018.45 1018.57 1018.65 1018.69 1018.67 1018.58 1018.42 1018.21 1017.94 1017.64 1017.33 1017.01 1016.69 1016.39 1016.10 1015.80 1015.50 1015.18 1014.84 1014.47 1014.07
1013.05 1013.39 1013.66 1013.91 1014.16 1014.45 1014.79 1015.17 1015.60 1016.04 1016.47 1016.87 1017.22 1017.49 1017.70 1017.84 1017.94 1018.01 1018.06 1018.12 1018.20 1018.29 1018.40 1018.51 1018.60 1018.66 1018.67 1018.62 1018.49 1018.30 1018.04 1017.74 1017.39 1017.02 1016.65 1016.27 1015.91 1015.55 1015.20 1014.85 1014.49 1014.13 1013.74
1013.09 1013.52 1013.87 1014.17 1014.46 1014.75 1015.07 1015.43 1015.82 1016.23 1016.63 1017.00 1017.33 1017.60 1017.81 1017.96 1018.05 1018.12 1018.17 1018.22 1018.29 1018.38 1018.49 1018.61 1018.72 1018.80 1018.84 1018.81 1018.70 1018.51 1018.24 1017.90 1017.51 1017.07 1016.61 1016.15 1015.70 1015.28 1014.87 1014.49 1014.13 1013.77 1013.42
1013.05 1013.56 1013.97 1014.32 1014.64 1014.95 1015.27 1015.60 1015.96 1016.33 1016.70 1017.06 1017.37 1017.64 1017.85 1018.00 1018.12 1018.20 1018.27 1018.34 1018.43 1018.54 1018.67 1018.81 1018.95 1019.06 1019.11 1019.10 1019.00 1018.80 1018.51 1018.12 1017.66 1017.15 1016.60 1016.06 1015.53 1015.03 1014.58 1014.17 1013.80 1013.47 1013.15
1012.92 1013.47 1013.94 1014.34 1014.68 1015.01 1015.32 1015.64 1015.97 1016.31 1016.65 1016.98 1017.28 1017.54 1017.76 1017.93 1018.06 1018.18 1018.28 1018.39 1018.51 1018.66 1018.83 1019.01 1019.18 1019.31 1019.39 1019.39 1019.29 1019.08 1018.75 1018.32 1017.81 1017.23 1016.62 1016.00 1015.41 1014.86 1014.38 1013.96 1013.60 1013.28 1013.00
1012.71 1013.30 1013.79 1014.22 1014.58 1014.91 1015.22 1015.53 1015.83 1016.14 1016.44 1016.74 1017.02 1017.27 1017.48 1017.67 1017.83 1017.98 1018.12 1018.28 1018.45 1018.64 1018.86 1019.07 1019.27 1019.44 1019.54 1019.55 1019.46 1019.24 1018.90 1018.45 1017.90 1017.29 1016.65 1016.00 1015.38 1014.82 1014.32 1013.91 1013.56 1013.27 1013.02
Thickness
5749 5750 5749 5748 5746 5743 5740 5738 5735 5733 5731 5728 5726 5724 5722 5722 5722 5721 5718 5716 5715 5714 5712 5710 5709 5707 5705 5703 5701 5699 5698 5697 5697 5694 5693 5696 5699 5697 5697 5696 5695 5694 5693
5743 5743 5743 5742 5741 5738 5735 5733 5731 5729 5727 5725 5723 5721 5720 5719 5718 5717 5715 5713 5711 5710 5708 5706 5704 5702 5699 5698 5696 5694 5691 5692 5692 5688 5684 5682 5685 5689 5693 5691 5690 5689 5688
5737 5737 5737 5736 5735 5733 5731 5731 5728 5725 5723 5721 5719 5717 5715 5714 5712 5711 5709 5708 5707 5705 5703 5702 5700 5697 5695 5692 5691 5689 5686 5684 5686 5685 5679 5674 5672 5677 5683 5685 5685 5684 5683
5735 5734 5730 5729 5730 5730 5730 5728 5725 5722 5720 5717 5714 5711 5707 5705 5706 5706 5705 5704 5703 5701 5700 5698 5695 5693 5690 5688 5686 5685 5683 5681 5678 5679 5679 5677 5674 5668 5669 5674 5677 5678 5676
5735 5731 5729 5727 5728 5728 5727 5725 5722 5719 5716 5713 5711 5707 5704 5703 5703 5702 5701 5700 5699 5698 5696 5694 5692 5689 5686 5684 5683 5681 5679 5677 5674 5673 5673 5672 5671 5669 5662 5662 5665 5667 5669
5730 5727 5726 5726 5725 5725 5724 5721 5718 5715 5712 5710 5707 5704 5701 5699 5697 5696 5696 5696 5695 5693 5691 5689 5687 5685 5682 5680 5679 5677 5674 5672 5670 5669 5668 5666 5663 5661 5659 5656 5656 5657 5660
5724 5723 5722 5722 5720 5718 5718 5717 5714 5710 5709 5706 5704 5701 5698 5696 5694 5693 5692 5691 5689 5687 5686 5685 5683 5681 5679 5677 5675 5672 5669 5668 5666 5664 5663 5662 5660 5659 5656 5651 5649 5649 5653
5723 5722 5720 5719 5718 5716 5714 5713 5710 5707 5705 5703 5700 5698 5696 5695 5693 5691 5690 5688 5686 5684 5683 5681 5679 5677 5675 5674 5671 5668 5666 5664 5662 5660 5658 5656 5656 5655 5652 5648 5643 5640 5642
5720 5718 5716 5715 5715 5714 5712 5709 5706 5704 5702 5700 5697 5695 5694 5692 5690 5688 5687 5684 5682 5681 5679 5677 5675 5673 5671 5669 5667 5664 5662 5660 5657 5655 5653 5651 5650 5649 5648 5646 5642 5635 5631
5718 5715 5712 5713 5711 5709 5707 5706 5703 5700 5698 5697 5695 5693 5691 5689 5687 5685 5682 5680 5678 5676 5675 5673 5671 5670 5667 5665 5663 5660 5658 5655 5653 5651 5649 5647 5645 5644 5642 5640 5638 5634 5628
5717 5714 5711 5710 5706 5706 5703 5700 5699 5697 5695 5694 5692 5690 5687 5686 5684 5681 5679 5677 5675 5673 5671 5670 5668 5666 5664 5662 5659 5656 5654 5651 5648 5646 5645 5642 5640 5638 5636 5634 5632 5629 5626
5719 5715 5712 5709 5705 5703 5701 5697 5696 5694 5693 5692 5690 5687 5685 5682 5680 5678 5676 5675 5672 5671 5669 5668 5666 5664 5662 5659 5656 5653 5650 5647 5644 5642 5640 5637 5636 5633 5630 5628 5626 5623 5621
5715 5713 5710 5707 5704 5702 5699 5696 5694 5693 5692 5690 5687 5684 5682 5679 5676 5675 5674 5672 5671 5669 5668 5666 5664 5661 5658 5656 5653 5650 5647 5643 5641 5638 5636 5633 5630 5627 5624 5622 5620 5618 5617
5713 5709 5707 5705 5701 5699 5696 5695 5693 5693 5691 5688 5684 5681 5679 5677 5675 5674 5672 5671 5669 5667 5665 5663 5661 5658 5656 5653 5650 5647 5644 5640 5637 5635 5632 5629 5625 5621 5619 5617 5614 5612 5609
5709 5706 5704 5702 5699 5697 5695 5694 5692 5691 5689 5686 5682 5680 5678 5676 5674 5672 5671 5669 5667 5665 5663 5660 5658 5656 5653 5649 5645 5642 5641 5637 5633 5631 5628 5625 5621 5617 5613 5611 5607 5605 5602
5707 5706 5703 5700 5697 5695 5693 5692 5690 5689 5687 5684 5681 5679 5676 5674 5672 5670 5668 5667 5664 5662 5660 5657 5654 5652 5649 5644 5640 5637 5635 5632 5628 5625 5622 5620 5616 5613 5609 5605 5602 5599 5596
5705 5703 5700 5697 5695 5694 5693 5690 5689 5687 5685 5682 5680 5677 5675 5672 5670 5669 5666 5663 5661 5659 5656 5654 5652 5648 5644 5640 5637 5634 5630 5628 5624 5621 5618 5616 5613 5608 5604 5601 5598 5595 5592
5702 5700 5698 5696 5694 5693 5692 5690 5688 5685 5682 5679 5677 5675 5673 5671 5669 5666 5664 5661 5659 5656 5653 5651 5649 5645 5641 5637 5634 5630 5627 5624 5622 5619 5615 5611 5607 5604 5599 5597 5594 5591 5588
5699 5698 5697 5695 5692 5690 5689 5686 5684 5682 5679 5677 5675 5674 5672 5669 5666 5664 5661 5659 5656 5654 5651 5649 5646 5642 5638 5634 5630 5626 5624 5621 5619 5617 5613 5609 5604 5599 5595 5592 5589 5586 5584
5698 5696 5695 5693 5689 5687 5685 5682 5679 5678 5676 5675 5673 5672 5670 5667 5664 5662 5659 5657 5654 5651 5649 5647 5644 5641 5637 5632 5628 5623 5621 5619 5617 5614 5611 5607 5602 5596 5591 5587 5584 5581 5580
5694 5693 5691 5688 5686 5685 5682 5678 5675 5674 5674 5673 5671 5669 5667 5664 5662 5660 5657 5654 5651 5649 5646 5644 5642 5639 5636 5631 5626 5621 5618 5616 5614 5612 5609 5605 5599 5593 5588 5584 5581 5579 5576
5690 5689 5686 5683 5683 5681 5678 5673 5671 5672 5671 5669 5667 5665 5664 5662 5661 5657 5654 5652 5649 5645 5643 5641 5639 5638 5634 5630 5625 5620 5616 5614 5610 5608 5606 5602 5596 5591 5586 5583 5581 5577 5573
5684 5683 5681 5678 5677 5677 5674 5670 5669 5669 5667 5665 5662 5661 5660 5659 5657 5655 5652 5649 5646 5644 5641 5639 5637 5635 5633 5629 5625 5620 5616 5612 5608 5606 5603 5598 5593 5589 5586 5583 5580 5575 5572
5679 5677 5675 5673 5672 5672 5671 5668 5667 5666 5663 5661 5659 5657 5656 5655 5653 5652 5651 5648 5645 5643 5641 5639 5636 5634 5631 5627 5623 5618 5614 5609 5605 5602 5599 5595 5592 5589 5586 5583 5580 5576 5573
5673 5672 5669 5668 5668 5668 5666 5665 5664 5663 5659 5657 5655 5654 5653 5651 5649 5648 5646 5645 5643 5640 5638 5637 5634 5630 5627 5623 5619 5615 5613 5609 5604 5600 5598 5596 5594 5591 5588 5585 5582 5578 5574
5667 5666 5665 5665 5665 5664 5663 5662 5661 5659 5656 5653 5652 5651 5650 5649 5648 5646 5643 5641 5639 5636 5634 5633 5629 5628 5624 5620 5617 5613 5609 5605 5600 5597 5596 5595 5593 5590 5587 5584 5581 5577 5573